Weather History for KGZH - April, 2013

Change the Weather History Date:

Tuesday, April 30, 2013

  Actual Average (WUND) Record (WUND)
Temperature  
Mean Temperature 72 °F -  
Max Temperature 84 °F - - (-1)
Min Temperature 59 °F - - (-1)
Cooling Degree Days 6    
Growing Degree Days 22 (Base 50)    
Moisture  
Dew Point 62 °F    
Average Humidity 77    
Maximum Humidity 94    
Minimum Humidity 48    
Precipitation  
Precipitation 0.01 in - - ()
Sea Level Pressure  
Sea Level Pressure 29.97 in    
Wind  
Wind Speed 2 mph (SE)    
Max Wind Speed 10 mph    
Max Gust Speed -    
Visibility 6 miles    
Events Fog , Thunderstorm    
Averages and records for this station are not official NWS values.
T = Trace of Precipitation, MM = Missing Value Source: NWS Daily Summary

Daily Weather History Graph

Daily Weather History Graph

Search for Another Location

Airport or City:

Trip Planner

Search our weather history database for the weather conditions in past years. The results will help you decide how hot, cold, wet, or windy it might be!

Date:

Astronomy

Apr. 30, 2013 Rise Set
Actual Time 6:03 AM CDT 7:27 PM CDT
Civil Twilight 5:38 AM CDT 7:53 PM CDT
Nautical Twilight 5:07 AM CDT 8:23 PM CDT
Astronomical Twilight 4:35 AM CDT 8:55 PM CDT
Moon No Moon Rise 10:35 AM CDT (4/30)
Length of Visible Light 14h 14m
Length of Day
13h 23m
Waning Gibbous, 70% of the Moon is Illuminated
Apr 30
Waning Gibbous
May 2
Last Quarter
May 9
New
May 17
First Quarter
May 24
Full

Hourly Weather History & Observations

Time (CDT) Temp. Heat Index Dew Point Humidity Pressure Visibility Wind Dir Wind Speed Gust Speed Precip Events Conditions
12:53 AM 61.0 °F - 57.9 °F 90% 29.96 in 7.0 mi Calm Calm - N/A   Clear
1:43 AM 60.8 °F - 57.2 °F 88% 29.95 in 2.5 mi Calm Calm - N/A   Partly Cloudy
1:51 AM 59.0 °F - 55.4 °F 88% 29.95 in 6.0 mi Calm Calm - N/A   Scattered Clouds
1:53 AM 59.0 °F - 55.9 °F 90% 29.95 in 6.0 mi Calm Calm - N/A   Mostly Cloudy
2:21 AM 60.8 °F - 57.2 °F 88% 29.96 in 7.0 mi Calm Calm - N/A   Mostly Cloudy
2:43 AM 62.6 °F - 59.0 °F 88% 29.96 in 1.5 mi Calm Calm - N/A   Overcast
2:53 AM 63.0 °F - 61.0 °F 93% 29.95 in 0.2 mi Calm Calm - N/A Fog Fog
3:53 AM 62.1 °F - 60.1 °F 93% 29.95 in 0.2 mi Calm Calm - N/A Fog Fog
4:53 AM 62.1 °F - 60.1 °F 93% 29.96 in 0.2 mi SE 3.5 mph - N/A Fog Fog
5:53 AM 62.1 °F - 60.1 °F 93% 29.96 in 0.2 mi ENE 3.5 mph - N/A Fog Fog
6:53 AM 63.0 °F - 61.0 °F 93% 29.99 in 0.2 mi ENE 3.5 mph - 0.01 in Fog Fog
7:53 AM 64.0 °F - 62.1 °F 93% 30.00 in 0.2 mi Calm Calm - N/A Fog Fog
8:19 AM 64.4 °F - 62.6 °F 94% 30.00 in 1.5 mi ESE 4.6 mph - N/A   Overcast
8:30 AM 64.4 °F - 62.6 °F 94% 30.00 in 3.0 mi East 3.5 mph - N/A   Overcast
8:53 AM 66.0 °F - 63.0 °F 90% 30.00 in 8.0 mi ESE 4.6 mph - N/A   Overcast
9:17 AM 69.8 °F - 62.6 °F 78% 30.01 in 7.0 mi ENE 3.5 mph - N/A   Overcast
9:53 AM 72.0 °F - 64.0 °F 76% 29.99 in 7.0 mi ESE 5.8 mph - N/A   Partly Cloudy
10:53 AM 78.1 °F - 63.0 °F 60% 30.00 in 10.0 mi SE 4.6 mph - N/A   Clear
11:53 AM 80.1 °F 81.7 °F 64.0 °F 58% 29.99 in 10.0 mi Variable 5.8 mph - 0.00 in   Scattered Clouds
12:53 PM 81.0 °F 82.2 °F 63.0 °F 54% 29.97 in 10.0 mi SE 5.8 mph - N/A   Scattered Clouds
1:53 PM 84.0 °F 85.4 °F 64.0 °F 51% 29.96 in 10.0 mi SE 6.9 mph - N/A   Mostly Cloudy
2:53 PM 82.9 °F 84.0 °F 63.0 °F 51% 29.95 in 8.0 mi SSE 9.2 mph - 0.00 in   Scattered Clouds
3:25 PM 84.2 °F 85.0 °F 62.6 °F 48% 29.95 in 10.0 mi South 10.4 mph - N/A Thunderstorm Partly Cloudy
3:41 PM 82.4 °F 83.4 °F 62.6 °F 51% 29.94 in 10.0 mi South 8.1 mph - N/A   Scattered Clouds
3:53 PM 82.0 °F 83.4 °F 64.0 °F 54% 29.94 in 10.0 mi South 9.2 mph - N/A   Mostly Cloudy
4:53 PM 77.0 °F - 64.9 °F 66% 29.93 in 10.0 mi SE 4.6 mph - N/A   Clear
5:53 PM 75.9 °F - 64.0 °F 67% 29.94 in 10.0 mi ESE 3.5 mph - N/A   Clear
6:53 PM 75.0 °F - 64.9 °F 71% 29.94 in 10.0 mi ESE 5.8 mph - N/A   Clear
7:53 PM 73.9 °F - 66.0 °F 76% 29.96 in 10.0 mi SSE 5.8 mph - N/A   Mostly Cloudy
8:53 PM 73.0 °F - 64.9 °F 76% 29.98 in 10.0 mi SSE 3.5 mph - N/A   Partly Cloudy
9:53 PM 71.1 °F - 64.9 °F 81% 29.99 in 10.0 mi ESE 5.8 mph - N/A   Mostly Cloudy
10:53 PM 70.0 °F - 64.0 °F 81% 29.99 in 10.0 mi SSE 3.5 mph - N/A   Partly Cloudy
11:53 PM 69.1 °F - 64.0 °F 84% 29.98 in 10.0 mi Calm Calm - N/A   Scattered Clouds